User: anonymous   Login
Location: Bailen
(14.1842°N, 120.7958°E)
Time: 05:30:04
(UTC+00:00)
Language:

Cosmos 921 Rocket - Orbit

View from above orbital plane
View from above orbital plane
View from above satellite
View from above satellite

Ground track
Ground track

The orbit is defined by the following mean orbital elements,

1 10096U          26075.27941066 +.00000000 +00000-0 +76118-4 0 00001
2 10096  75.8306  78.6196 0041184 338.7828  21.1654 14.92018252    04
Epoch (UTC): 16 March 2026 06:42:21
Eccentricity: 0.0041184
inclination: 75.8306°
perigee height: 563 km
apogee height: 620 km
right ascension of ascending node: 78.6196°
argument of perigee: 338.7828°
revolutions per day: 14.92018252
mean anomaly at epoch: 21.1654°

The dashed part of the orbit path shows where the satellite is in the earth's shadow,  

DLR